Location: Elstree
(51.6403°N, 0.2969°W)
Time: 16:06:19
(UTC+00:00)

SJ 16-02 - Pass Details

Date: 22 June 2021
Orbit: 606 x 616 km, 75.0° (Epoch: 29 July)

Event Time Altitude Azimuth Distance (km) Brightness Sun altitude
Rises 01:01:56 0° 320° (NW) 2,875 5.3 -13.8°
Reaches altitude 10° 01:05:35 10° 288° (WNW) 1,963 4.0 -13.7°
Maximum altitude 01:07:08 12° 267° (W) 1,847 3.6 -13.6°
Drops below altitude 10° 01:08:41 10° 246° (WSW) 1,958 3.6 -13.6°
Enters shadow 01:08:51 10° 244° (WSW) 1,982 3.6 -13.6°
